SCP
0 0 0 0 0 0 0 0 0 0 0 0 0 0 0 0 0 0 0 0 0 0 0 0 0 0 0 0 0 0 0 0 0 0 0 0 0 0 0 0 0 0 0 0
0 0 0 0 0 0 0 0 0 0 0 0 0 0 0 0 0 0 0 0 0 0 0 0 0 0 0 0 0 0 0 0 0 0 0 0 0 0 0 0 0 0 0 0
0 0 0 0 0 0 0 0 0 0 0 0 0 0 0 0 0 0 0 0 0 0 0 0 0 0 0 0 0 0 0 0 0 0 0 0 0 0 0 0 0 0 0 0
0 0 0 0 0 0 0 0 0 0 0 0 0 0 0 0 0 0 0 0 0 0 0 0 0 0 0 0 0 0 0 0 0 0 0 0 0 0 0 0 0 0 0 0
0 0 0 0 0 0 0 0 0 0 0 0 0 0 0 0 0 0 0 0 0 0 0 0 0 0 0 0 0 0 0 0 0 0 0 0 0 0 0 0 0 0 0 0
0 0 0 0 0 0 0 0 0 0 0 0 0 0 0 0 0 0 0 0 0 0 0 0 0 0 0 0 0 0 0 0 0 0 0 0 0 0 0 0 0 0 0 0
0 0 0 0 0 0 0 0 0 0 0 0 0 0 0 0 0 0 0 0 0 0 0 0 0 0 0 0 0 0 0 0 0 0 0 0 0 0 0 0 0 0 0 0
0 0 0 0 0 0 0 0 0 0 0 0 0 0 0 0 0 0 0 0 0 0 0 0 0 0 0 0 0 0 0 0 0 0 0 0 0 0 0 0 0 0 0 0
0 0 0 0 0 0 0 0 0 0 0 0 0 0 0 0 0 0 0 0 0 0 0 0 0 0 0 0 0 0 0 0 0 0 0 0 0 0 0 0 0 0 0 0
0 0 0 0 0 0 0 0 0 0 0 0 0 0 0 0 0 0 0 0 0 0 0 0 0 0 0 0 0 0 0 0 0 0 0 0 0 0 0 0 0 0 0 0
0 0 0 0 0 0 0 0 0 0 0 0 0 0 0 0 0 0 0 0 0 0 0 0 0 0 0 0 0 0 0 0 0 0 0 0 0 0 0 0 0 0 0 0
0 0 0 0 0 0 0 0 0 0 0 0 0 0 0 0 0 0 0 0 0 0 0 0 0 0 0 0 0 0 0 0 0 0 0 0 0 0 0 0 0 0 0 0
0 0 0 0 0 0 0 0 0 0 0 0 0 0 0 0 0 0 0 0 0 0 0 0 0 0 0 0 0 0 0 0 0 0 0 0 0 0 0 0 0 0 0 0
0 0 0 0 0 0 0 0 0 0 0 0 0 0 0 0 0 0 0 0 0 0 0 0 0 0 0 0 0 0 0 0 0 0 0 0 0 0 0 0 0 0 0 0
0 0 0 0 0 0 0 0 0 0 0 0 0 0 0 0 0 0 0 0 0 0 0 0 0 0 0 0 0 0 0 0 0 0 0 0 0 0 0 0 0 0 0 0
0 0 0 0 0 0 0 0 0 0 0 0 0 0 0 0 0 0 0 0 0 0 0 0 0 0 0 0 0 0 0 0 0 0 0 0 0 0 0 0 0 0 0 0
0 0 0 0 0 0 0 0 0 0 0 0 0 0 0 0 0 0 0 0 0 0 0 0 0 0 0 0 0 0 0 0 0 0 0 0 0 0 0 0 0 0 0 0
0 0 0 0 0 0 0 0 0 0 0 0 0 0 0 0 0 0 0 0 0 0 0 0 0 0 -0 -0 -0 0 0 0 0 0 0 0 0 0 0 0 0 0 0 0
0 0 0 0 0 0 0 0 0 0 0 0 0 0 0 0 0 0 0 0 0 0 0 0 0 0 0 0 0 0 0 0 0 0 0 0 0 0 0 0 0 0 0 0
0 0 0 0 0 0 0 0 0 0 0 0 0 0 0 0 0 0 0 0 0 0 0 0 0 0 0 0 0 0 0 0 0 0 0 0 0 0 0 0 0 0 0 0
0 0 0 0 0 0 0 0 0 0 0 0 0 0 0 0 0 0 0 0 0 0 0 0 0 0 0 0 0 0 0 0 0 0 0 0 0 0 0 0 0 0 0 0
0 0 0 0 0 0 0 0 0 0 0 0 0 0 0 0 0 0 0 0 0 0 0 0 0 0 0 0 0 0 0 0 0 0 0 0 0 0 0 0 0 0 0 0
0 0 0 0 0 0 0 0 0 0 0 0 0 0 0 0 0 0 0 0 0 0 0 0 0 0 0 0 0 0 0 0 0 0 0 0 0 0 0 0 0 0 0 0
0 0 0 0 0 0 0 0 0 0 0 0 0 0 0 0 0 0 0 0 0 0 0 0 0 0 0 0 0 0 0 0 0 0 0 0 0 0 0 0 0 0 0 0
0 0 0 0 0 0 0 0 0 0 0 0 0 0 0 0 0 0 0 0 0 0 0 0 0 0 0 0 0 0 0 0 0 0 0 0 0 0 0 0 0 0 0 0
0 0 0 0 0 0 0 0 0 0 0 0 0 0 0 0 0 0 0 0 0 0 0 0 0 0 0 0 0 0 0 0 0 0 0 0 0 0 0 0 0 0 0 0
Wind_Speed
3 4 4 6 5 5 5 4 2 2 1 2 4 6 7 4 4 6 6 6 7 8 5 4 5 6 5 5 5 5 5 4 4 2 2 1 0 1 1 1 1 1 2 2
4 2 4 5 5 4 4 3 1 2 1 2 2 5 5 4 5 6 7 8 8 6 4 4 5 6 6 6 6 5 6 5 4 2 2 1 1 0 1 1 2 2 2 2
4 4 6 6 5 4 2 3 2 1 1 2 2 5 4 3 2 2 4 5 6 8 8 7 6 6 6 6 7 6 6 5 4 3 2 2 2 2 1 1 2 2 2 2
2 3 5 4 4 4 2 3 3 2 2 1 1 2 5 3 3 3 3 4 5 6 7 7 7 7 7 7 6 6 6 5 4 4 4 4 2 2 2 1 2 3 3 2
1 4 5 3 3 5 2 2 3 2 3 2 3 1 7 3 2 4 4 5 5 6 7 8 8 8 7 6 6 5 5 4 4 4 4 4 2 2 1 1 2 2 3 3
1 2 3 3 1 3 3 4 5 5 4 2 1 1 5 3 4 4 3 4 5 5 6 5 4 4 4 4 5 5 5 4 4 4 4 4 4 3 1 1 2 2 2 2
3 1 1 2 4 2 4 5 4 5 4 3 2 1 7 5 4 5 5 5 4 5 6 6 6 6 6 6 6 6 6 5 4 4 4 4 4 4 3 3 2 2 2 2
3 1 3 3 4 5 3 6 6 4 3 3 2 2 7 5 4 2 2 2 3 4 5 6 7 7 7 7 7 6 7 5 5 5 5 4 4 3 3 3 2 2 2 3
4 1 1 2 3 7 5 2 4 6 2 1 4 5 7 4 4 4 3 1 2 4 5 5 5 6 7 8 8 8 7 6 5 5 4 4 4 4 3 3 2 2 3 3
5 2 1 1 4 3 4 7 5 5 4 1 4 3 4 5 4 4 3 2 4 3 3 3 4 5 6 6 6 6 7 7 6 5 5 4 4 4 3 2 3 3 3 2
2 4 2 2 2 3 3 4 5 4 4 5 0 5 4 4 3 3 3 3 3 3 3 3 4 4 4 4 5 5 6 5 5 5 5 4 4 4 3 3 3 3 2 2
2 5 1 2 2 1 3 5 6 4 2 3 3 6 4 3 3 2 3 3 3 2 2 2 2 2 2 4 4 5 6 6 6 5 5 5 4 3 4 4 4 3 3 2
4 6 4 5 6 4 2 3 3 6 5 4 3 5 4 4 3 2 2 3 3 2 2 1 0 1 2 4 4 5 6 6 5 5 5 5 4 5 5 5 4 3 3 2
5 5 5 6 5 2 0 2 3 5 4 3 5 4 6 6 5 4 3 3 3 3 2 2 2 2 2 3 4 4 5 5 5 5 5 6 6 6 6 5 4 3 3 3
5 4 1 2 1 1 1 1 3 3 5 6 5 3 5 4 3 3 3 3 4 5 4 3 3 2 2 2 3 3 4 4 5 5 6 7 6 5 5 4 4 3 3 4
4 3 2 1 2 1 1 1 2 2 2 2 1 2 4 3 1 3 4 4 4 4 4 4 4 3 3 3 3 3 4 4 4 6 7 5 4 5 5 5 4 4 4 3
2 3 3 1 3 2 2 2 3 2 1 4 4 5 2 2 2 2 2 3 3 4 4 4 4 4 4 4 3 4 4 3 4 5 5 4 5 5 5 5 4 5 5 4
4 4 3 1 2 2 5 1 4 4 1 1 2 2 2 1 1 1 1 2 4 5 5 5 4 4 4 2 2 2 1 2 4 4 5 4 5 5 5 4 5 5 4 4
4 6 4 3 1 3 4 1 2 3 0 1 1 1 1 1 2 4 4 3 3 4 4 4 4 3 2 2 1 0 0 1 2 4 5 5 5 6 5 6 6 5 4 5
4 5 5 4 3 4 5 3 2 4 1 3 1 1 1 3 3 4 5 4 4 5 4 4 4 2 2 2 0 1 1 1 3 5 6 5 5 6 6 7 6 4 4 5
3 3 3 4 3 5 5 4 2 4 4 2 0 0 1 2 3 4 4 4 4 4 5 4 3 3 3 2 0 1 1 4 5 4 4 4 5 6 6 5 4 4 4 4
4 4 4 4 3 6 3 2 3 4 2 0 0 1 1 1 2 2 3 4 5 6 6 5 4 4 3 2 1 2 4 5 3 3 3 4 4 5 4 5 4 4 4 4
3 5 5 6 5 2 1 1 0 1 1 1 0 1 0 0 2 3 3 4 5 5 5 5 4 5 4 2 2 4 6 4 3 3 4 4 4 4 4 4 5 4 4 4
2 1 3 1 2 1 1 1 2 2 0 1 0 0 1 0 1 2 3 4 5 5 5 5 4 5 6 4 4 5 5 3 3 4 5 4 3 4 4 4 4 5 5 5
3 1 1 1 3 2 2 2 2 2 2 2 2 1 0 0 1 2 3 4 4 4 4 4 4 5 6 6 5 5 4 3 4 5 5 4 4 4 4 4 5 6 7 7
4 5 5 6 5 3 3 3 1 1 2 2 1 2 2 1 2 2 3 3 3 4 4 4 5 6 6 6 7 6 4 4 4 5 5 4 4 4 4 4 4 6 7 10
Wind_Direction
113 99 157 187 178 159 151 154 205 249 253 186 237 265 273 252 215 220 222 216 215 223 225 194 184 170 157 160 165 164 156 154 140 129 129 120 120 329 337 330 334 338 334 342
77 153 196 156 145 128 134 146 218 294 268 194 269 281 278 245 222 216 219 217 215 210 191 182 177 169 169 173 173 170 170 165 169 157 148 152 148 216 265 307 321 328 335 330
151 187 157 137 140 142 151 172 195 190 20 44 7 323 302 287 270 238 219 214 208 199 193 187 181 181 176 181 182 181 179 172 172 148 112 83 58 29 6 334 314 316 319 317
132 147 147 144 168 156 200 212 174 143 96 353 49 307 299 299 303 262 239 215 207 203 192 188 185 188 191 192 181 177 173 169 166 155 154 153 158 189 231 247 278 304 313 312
167 158 157 175 195 163 182 97 112 107 113 43 22 98 292 329 292 268 246 228 215 204 195 194 194 194 190 180 174 173 166 169 169 172 171 160 167 197 235 274 294 307 314 314
141 163 169 185 109 137 130 75 61 53 68 38 304 139 287 267 247 268 252 231 217 203 197 198 193 179 176 166 165 164 168 182 181 181 179 176 181 189 211 263 285 302 308 309
56 74 214 143 102 77 90 86 46 23 26 276 289 195 257 264 256 241 240 233 214 193 185 188 187 187 186 183 180 176 177 190 188 184 190 193 192 191 206 224 238 266 292 294
110 262 217 183 163 155 151 131 145 160 193 288 344 260 265 279 293 267 226 206 192 194 195 199 199 195 193 193 188 185 189 196 191 193 202 200 197 196 215 223 224 239 251 265
150 239 285 183 154 131 132 142 153 124 120 41 319 308 314 349 11 23 34 62 227 219 210 210 204 198 195 196 196 193 192 199 200 202 201 204 207 209 220 230 232 245 256 267
145 121 359 124 86 47 123 138 101 101 118 47 330 325 295 317 331 350 353 297 272 260 244 228 213 207 205 205 203 193 193 199 201 198 201 208 214 217 218 218 239 252 264 271
112 111 19 70 145 169 113 96 100 98 130 136 134 288 249 261 275 282 287 284 272 257 244 236 228 215 203 195 191 194 198 200 205 205 205 209 215 215 215 223 237 244 253 262
114 108 84 284 289 194 152 152 144 135 160 139 146 267 289 286 283 275 293 305 302 276 257 244 230 203 198 201 201 200 200 204 211 206 203 212 216 213 220 233 241 234 240 249
124 100 72 359 350 7 67 112 122 116 111 135 147 263 318 359 6 352 328 322 333 334 325 336 348 220 223 216 211 209 208 212 211 199 204 212 215 217 226 233 237 228 228 241
108 98 144 178 214 239 329 123 139 122 130 172 209 248 318 344 348 344 344 347 4 7 354 341 306 273 255 233 219 216 220 214 206 199 205 215 219 220 226 228 228 225 222 227
86 104 146 207 223 160 206 172 155 162 173 172 213 216 276 296 294 322 354 17 24 9 356 334 302 282 269 260 243 227 227 215 202 201 213 223 222 220 223 226 225 224 222 224
56 110 82 24 34 69 12 327 162 165 160 175 162 260 274 298 7 24 18 23 14 348 332 323 318 303 277 259 254 243 236 219 197 205 221 223 215 213 218 223 220 220 226 227
55 110 104 277 315 45 310 261 166 145 167 160 188 236 288 359 12 2 351 6 348 328 324 317 300 279 266 254 241 240 240 214 198 214 224 219 214 218 221 219 213 220 225 221
132 108 118 116 54 215 243 255 152 133 90 164 205 240 220 219 260 335 10 2 333 328 325 319 311 302 288 277 261 258 242 202 208 222 230 223 215 224 224 216 220 225 220 215
148 133 117 118 145 282 295 277 169 151 20 321 209 280 335 350 36 358 358 344 302 302 301 299 296 287 298 310 300 288 278 228 225 236 238 233 220 223 222 222 226 224 216 218
70 93 112 126 153 223 247 289 288 115 330 317 30 341 4 64 45 300 326 334 325 324 321 319 322 330 335 320 341 116 262 253 251 249 245 236 222 219 224 228 227 219 215 222
65 66 115 148 195 258 265 294 80 132 238 280 177 125 123 153 211 267 317 334 334 331 332 337 346 347 323 319 79 246 257 252 256 263 259 242 229 226 226 227 225 218 216 219
164 147 165 144 177 248 306 68 134 199 226 193 153 151 162 236 304 326 338 341 346 348 348 350 348 334 330 331 296 280 268 269 280 271 264 255 243 238 231 220 222 214 207 214
188 185 181 182 201 237 335 136 217 154 136 283 267 294 151 29 337 339 343 344 343 343 341 341 335 326 326 321 285 271 277 289 287 275 266 263 259 245 231 216 218 214 210 216
286 129 130 236 264 274 343 16 23 53 92 306 289 291 99 43 322 333 335 333 333 332 332 333 333 327 320 314 295 277 288 285 272 268 269 263 254 254 242 229 217 214 214 220
245 147 116 261 273 325 346 351 357 7 8 5 355 347 248 239 317 311 313 314 314 315 315 318 314 307 305 307 302 299 295 278 272 271 269 266 253 246 241 234 229 226 225 219
214 188 181 220 220 190 244 276 328 13 339 321 323 327 310 271 272 289 291 292 299 307 309 313 309 304 305 308 305 305 295 276 269 274 269 261 257 249 240 240 259 254 248 245